Location: Newark
(44.1667°N, 8.2500°E)
Time: 21:36:46
(UTC+00:00)

S-56A Canister/Altair - Pass Details

Date: 18 December 2019
Orbit: 634 x 2498 km, 38.9° (Epoch: 26 January)

Event Time Altitude Azimuth Distance (km) Brightness Sun altitude
Rises 07:33:28 0° 236° (SW) 4,943 11.5 4.4°
Reaches altitude 10° 07:36:25 10° 232° (SW) 4,175 11.2 4.9°
Maximum altitude 07:47:59 58° 158° (SSE) 2,555 10.8 6.4°
Drops below altitude 10° 08:02:33 10° 85° (E) 5,165 12.4 8.3°
Sets 08:06:38 0° 82° (E) 6,153 12.7 8.8°
